User: anonymous   Login
Location: Oshawa
(43.9000°N, 78.8670°W)
Time: 22:03:37
(UTC-04:00)
Language:

Cosmos 1408 Rocket - Orbit

View from above orbital plane
View from above orbital plane
View from above satellite
View from above satellite

Ground track
Ground track

The orbit data is extracted from the following two-line orbital elements,

1 13553U 82092B   15148.16041281  .00000173  00000-0  17856-4 0  9992
2 13553 082.5701 213.6912 0021707 010.6837 019.2005 14.83899444765658
Epoch (UTC): 28 May 2015 03:50:59
Eccentricity: 0.0021707
inclination: 82.5701°
perigee height: 602 km
apogee height: 632 km
right ascension of ascending node: 213.6912°
argument of perigee: 10.6837°
revolutions per day: 14.83899444
mean anomaly at epoch: 19.2005°
orbit number at epoch: 76565

The dashed part of the orbit path shows where the satellite is in the earth's shadow,  

DLR